This is the latest recevied weather packets stored in our database for station/object SV1RVP-13. If no packets are shown the sender has not sent any weather packets the latest 1 day(s).
| Time | Temp. | Humidity | Pressure | Rain* | Wind** | Luminosity | Snow |
|---|---|---|---|---|---|---|---|
| 1778082527 | 23.33° C | 41% | 1014.9 hPa | 0 mm | - | - | - |
| 1778081315 | 23.33° C | 43% | 1015 hPa | 0 mm | - | - | - |
| 1778075324 | 23.89° C | 44% | 1015.2 hPa | 0 mm | - | - | - |
| 1778074716 | 23.89° C | 45% | 1015.3 hPa | 0 mm | - | - | - |
| 1778074116 | 23.89° C | 45% | 1015.4 hPa | 0 mm | - | - | - |
| 1778073511 | 23.89° C | 45% | 1015.4 hPa | 0 mm | - | - | - |
| 1778071722 | 24.44° C | 44% | 1015.5 hPa | 0 mm | - | - | - |
| 1778067513 | 23.89° C | 47% | 1016 hPa | 0 mm | - | - | - |
| 1778066915 | 23.89° C | 47% | 1016.1 hPa | 0 mm | - | - | - |
| 1778065709 | 24.44° C | 46% | 1016 hPa | 0 mm | - | - | - |
| 1778062107 | 24.44° C | 44% | 1016 hPa | 0 mm | - | - | - |
| 1778061522 | 23.89° C | 46% | 1016 hPa | 0 mm | - | - | - |
| 1778060312 | 24.44° C | 48% | 1016.2 hPa | 0 mm | - | - | - |
| 1778057924 | 23.89° C | 48% | 1016.3 hPa | 0 mm | - | - | - |
| 1778057319 | 23.33° C | 48% | 1016.1 hPa | 0 mm | - | - | - |
| 1778056711 | 23.33° C | 52% | 1016.1 hPa | 0 mm | - | - | - |
| 1778055532 | 22.78° C | 51% | 1016.2 hPa | 0 mm | - | - | - |
| 1778054317 | 22.78° C | 50% | 1016 hPa | 0 mm | - | - | - |
| 1778052507 | 22.22° C | 50% | 1015.9 hPa | 0 mm | - | - | - |
| 1778051317 | 22.22° C | 50% | 1015.8 hPa | 0 mm | - | - | - |
| 1778050710 | 21.67° C | 50% | 1015.8 hPa | 0 mm | - | - | - |
| 1778050106 | 21.67° C | 49% | 1015.8 hPa | 0 mm | - | - | - |
| 1778049528 | 21.67° C | 50% | 1015.8 hPa | 0 mm | - | - | - |
| 1778048915 | 21.11° C | 51% | 1015.9 hPa | 0 mm | - | - | - |
| 1778048313 | 21.11° C | 50% | 1015.8 hPa | 0 mm | - | - | - |
* Rain since midnight (hover to see other rain measurements)
** Current wind speed in m/s (hover to see current wind gust speed)